Hourly Weather Alimtau

Today, 5 December, Saturday

Time Temperature Precipitation Wind Pressure Humidity
00:00 -4°C° 0 mm 1 mps 735 mmHg 54%
01:00 -4°C° 0 mm 1 mps 735 mmHg 54%
02:00 -4°C° 0 mm 1 mps 735 mmHg 54%
03:00 -4°C° 0 mm 1 mps 735 mmHg 54%
04:00 -4°C° 0 mm 1 mps 735 mmHg 54%
05:00 -4°C° 0 mm 1 mps 735 mmHg 56%
06:00 -4°C° 0 mm 1 mps 735 mmHg 56%
07:00 -4°C° 0 mm 1 mps 735 mmHg 56%
08:00 -4°C° 0 mm 1 mps 735 mmHg 55%
09:00 -3°C° 0 mm 1 mps 735 mmHg 51%
10:00 -1°C° 0 mm 1 mps 735 mmHg 47%
11:00 0°C° 0 mm 1 mps 735 mmHg 42%
12:00 +1°C° 0 mm 1 mps 735 mmHg 41%
13:00 +1°C° 0 mm 1 mps 735 mmHg 41%
14:00 +2°C° 0 mm 1 mps 734 mmHg 40%
15:00 +1°C° 0 mm 1 mps 735 mmHg 46%
16:00 -3°C° 0 mm 2 mps 735 mmHg 52%
17:00 -4°C° 0 mm 2 mps 735 mmHg 58%
18:00 -4°C° 0 mm 2 mps 735 mmHg 62%
19:00 -3°C° 0 mm 1 mps 735 mmHg 66%
20:00 -4°C° 0 mm 1 mps 735 mmHg 70%
21:00 -4°C° 0 mm 1 mps 735 mmHg 70%
22:00 -4°C° 0 mm 1 mps 735 mmHg 70%
23:00 -4°C° 0 mm 1 mps 735 mmHg 71%

Tomorrow, 6 December, Sunday

Time Temperature Precipitation Wind Pressure Humidity
00:00 -4°C° 0 mm 1 mps 735 mmHg 69%
01:00 -4°C° 0 mm 1 mps 735 mmHg 68%
02:00 -4°C° 0 mm 1 mps 735 mmHg 66%
03:00 -4°C° 0 mm 1 mps 735 mmHg 65%
04:00 -4°C° 0 mm 1 mps 735 mmHg 64%
05:00 -4°C° 0 mm 1 mps 735 mmHg 63%
06:00 -3°C° 0 mm 1 mps 735 mmHg 63%
07:00 -3°C° 0 mm 1 mps 736 mmHg 63%
08:00 -3°C° 0 mm 1 mps 736 mmHg 62%
09:00 -1°C° 0 mm 1 mps 736 mmHg 57%
10:00 0°C° 0 mm 1 mps 736 mmHg 52%
11:00 +1°C° 0 mm 0 mps 736 mmHg 47%
12:00 +3°C° 0 mm 1 mps 735 mmHg 47%
13:00 +3°C° 0 mm 1 mps 735 mmHg 47%
14:00 +4°C° 0 mm 1 mps 735 mmHg 47%
15:00 +2°C° 0 mm 2 mps 735 mmHg 53%
16:00 -1°C° 0 mm 2 mps 735 mmHg 60%
17:00 -2°C° 0 mm 2 mps 735 mmHg 66%
18:00 -3°C° 0 mm 2 mps 735 mmHg 69%
19:00 -3°C° 0 mm 2 mps 734 mmHg 71%
20:00 -4°C° 0 mm 2 mps 734 mmHg 74%
21:00 -4°C° 0 mm 2 mps 734 mmHg 75%
22:00 -4°C° 0 mm 2 mps 734 mmHg 75%
23:00 -4°C° 0 mm 2 mps 733 mmHg 76%

Day after tomorrow, 7 December, Monday

Time Temperature Precipitation Wind Pressure Humidity
00:00 -4°C° 0 mm 2 mps 733 mmHg 76%
01:00 -4°C° 0 mm 2 mps 733 mmHg 76%
02:00 -4°C° 0 mm 2 mps 733 mmHg 76%
03:00 -5°C° 0 mm 2 mps 733 mmHg 76%
04:00 -5°C° 0 mm 2 mps 732 mmHg 77%
05:00 -5°C° 0 mm 2 mps 732 mmHg 77%
06:00 -6°C° 0 mm 2 mps 732 mmHg 77%
07:00 -6°C° 0 mm 2 mps 732 mmHg 76%
08:00 -6°C° 0 mm 2 mps 733 mmHg 75%
09:00 -4°C° 0 mm 2 mps 733 mmHg 69%
10:00 -3°C° 0 mm 2 mps 733 mmHg 64%
11:00 -2°C° 0 mm 2 mps 733 mmHg 58%
12:00 -1°C° 0 mm 2 mps 733 mmHg 55%
13:00 -1°C° 0 mm 2 mps 733 mmHg 52%
14:00 -1°C° 0 mm 2 mps 733 mmHg 50%
15:00 -2°C° 0 mm 2 mps 733 mmHg 52%
16:00 -3°C° 0 mm 2 mps 733 mmHg 54%
17:00 -6°C° 0 mm 3 mps 734 mmHg 56%
18:00 -5°C° 0 mm 2 mps 734 mmHg 58%
19:00 -6°C° 0 mm 2 mps 734 mmHg 60%
20:00 -7°C° 0 mm 2 mps 734 mmHg 61%
21:00 -7°C° 0 mm 2 mps 735 mmHg 62%
22:00 -7°C° 0 mm 2 mps 735 mmHg 63%
23:00 -7°C° 0 mm 2 mps 735 mmHg 64%

8 December, Tuesday

Time Temperature Precipitation Wind Pressure Humidity
00:00 -7°C° 0 mm 2 mps 735 mmHg 65%
01:00 -7°C° 0 mm 2 mps 735 mmHg 66%
02:00 -8°C° 0 mm 2 mps 735 mmHg 67%
03:00 -8°C° 0 mm 2 mps 735 mmHg 68%
04:00 -7°C° 0 mm 1 mps 735 mmHg 69%
05:00 -7°C° 0 mm 1 mps 735 mmHg 70%
06:00 -7°C° 0 mm 1 mps 735 mmHg 71%
07:00 -7°C° 0 mm 1 mps 735 mmHg 72%
08:00 -8°C° 0 mm 2 mps 736 mmHg 73%
09:00 -6°C° 0 mm 1 mps 736 mmHg 68%
10:00 -3°C° 0 mm 1 mps 736 mmHg 62%
11:00 -2°C° 0 mm 1 mps 736 mmHg 57%
12:00 -1°C° 0 mm 1 mps 736 mmHg 54%
13:00 0°C° 0 mm 1 mps 736 mmHg 52%
14:00 0°C° 0 mm 1 mps 736 mmHg 50%
15:00 -3°C° 0 mm 2 mps 736 mmHg 52%
16:00 -4°C° 0 mm 2 mps 736 mmHg 55%
17:00 -5°C° 0 mm 2 mps 736 mmHg 58%
18:00 -6°C° 0 mm 2 mps 737 mmHg 60%
19:00 -4°C° 0 mm 1 mps 737 mmHg 61%
20:00 -6°C° 0 mm 1 mps 737 mmHg 63%
21:00 -6°C° 0 mm 1 mps 737 mmHg 64%
22:00 -6°C° 0 mm 1 mps 737 mmHg 65%
23:00 -6°C° 0 mm 1 mps 737 mmHg 66%

9 December, Wednesday

Time Temperature Precipitation Wind Pressure Humidity
00:00 -6°C° 0 mm 1 mps 737 mmHg 67%
01:00 -6°C° 0 mm 1 mps 738 mmHg 69%
02:00 -7°C° 0 mm 1 mps 738 mmHg 70%
03:00 -7°C° 0 mm 1 mps 738 mmHg 70%
04:00 -7°C° 0 mm 1 mps 738 mmHg 71%
05:00 -7°C° 0 mm 1 mps 738 mmHg 71%
06:00 -7°C° 0 mm 1 mps 738 mmHg 72%
07:00 -7°C° 0 mm 1 mps 738 mmHg 73%
08:00 -7°C° 0 mm 1 mps 738 mmHg 74%
09:00 -6°C° 0 mm 1 mps 738 mmHg 67%
10:00 -3°C° 0 mm 1 mps 738 mmHg 60%
11:00 -2°C° 0 mm 0 mps 738 mmHg 52%
12:00 -1°C° 0 mm 1 mps 738 mmHg 48%
13:00 0°C° 0 mm 1 mps 738 mmHg 44%
14:00 -1°C° 0 mm 2 mps 738 mmHg 39%
15:00 -3°C° 0 mm 2 mps 738 mmHg 46%
16:00 -4°C° 0 mm 2 mps 738 mmHg 53%
17:00 -5°C° 0 mm 2 mps 738 mmHg 60%
18:00 -6°C° 0 mm 2 mps 738 mmHg 64%
19:00 -6°C° 0 mm 2 mps 737 mmHg 69%
20:00 -7°C° 0 mm 2 mps 737 mmHg 73%
21:00 -7°C° 0 mm 2 mps 737 mmHg 73%
22:00 -7°C° 0 mm 2 mps 737 mmHg 73%
23:00 -6°C° 0 mm 1 mps 737 mmHg 73%

10 December, Thursday

Time Temperature Precipitation Wind Pressure Humidity
00:00 -6°C° 0 mm 1 mps 737 mmHg 71%
01:00 -6°C° 0 mm 1 mps 737 mmHg 69%
02:00 -6°C° 0 mm 1 mps 737 mmHg 67%
03:00 -6°C° 0 mm 1 mps 737 mmHg 64%
04:00 -6°C° 0 mm 1 mps 737 mmHg 62%
05:00 -6°C° 0 mm 1 mps 737 mmHg 59%
06:00 -6°C° 0 mm 1 mps 737 mmHg 57%
07:00 -6°C° 0 mm 1 mps 737 mmHg 54%
08:00 -6°C° 0 mm 1 mps 737 mmHg 52%
09:00 -3°C° 0 mm 1 mps 737 mmHg 47%
10:00 -1°C° 0 mm 1 mps 737 mmHg 42%
11:00 +1°C° 0 mm 1 mps 737 mmHg 36%
12:00 +1°C° 0 mm 1 mps 737 mmHg 35%
13:00 +2°C° 0 mm 1 mps 737 mmHg 35%
14:00 +2°C° 0 mm 2 mps 737 mmHg 34%
15:00 +1°C° 0 mm 2 mps 737 mmHg 39%
16:00 -2°C° 0 mm 2 mps 736 mmHg 45%
17:00 -3°C° 0 mm 2 mps 736 mmHg 51%
18:00 -3°C° 0 mm 2 mps 736 mmHg 52%
19:00 -4°C° 0 mm 2 mps 736 mmHg 52%
20:00 -4°C° 0 mm 2 mps 736 mmHg 53%
21:00 -4°C° 0 mm 2 mps 736 mmHg 51%
22:00 -4°C° 0 mm 2 mps 736 mmHg 49%
23:00 -4°C° 0 mm 2 mps 736 mmHg 47%
Show more